START_TIME,STEP,MOV.,M35,t_acc.,PL05,t_acc.,PL06,t_acc.,PL07,t_acc.
1981-08-26 18:00:24.760 ,0,0,0.,4.8,4.,4.8,0.,4.8,0.,4.8
1981-08-26 18:00:29.560 ,0,0,0.,4.8,5.,4.8,0.,4.8,0.,4.8
1981-08-26 18:00:34.360 ,0,0,0.,4.8,5.,4.8,0.,4.8,0.,4.8
1981-08-26 18:00:39.160 ,0,0,0.,4.8,5.,4.8,0.,4.8,1.,4.8
1981-08-26 18:00:43.960 ,0,0,0.,4.8,8.,4.8,0.,4.8,0.,4.8
1981-08-26 18:00:48.760 ,1,0,0.,4.8,3.,4.8,0.,4.8,0.,4.8
1981-08-26 18:00:53.560 ,1,0,0.,4.8,4.,4.8,1.,4.8,0.,4.8
1981-08-26 18:00:58.360 ,1,0,0.,4.8,2.,4.8,1.,4.8,0.,4.8
1981-08-26 18:01:03.160 ,1,0,0.,4.8,7.,4.8,0.,4.8,0.,4.8
1981-08-26 18:01:07.960 ,1,0,0.,4.8,7.,4.8,0.,4.8,1.,4.8
1981-08-26 18:01:12.760 ,1,0,0.,4.8,6.,4.8,1.,4.8,0.,4.8
1981-08-26 18:01:17.560 ,1,0,0.,4.8,3.,4.8,1.,4.8,0.,4.8
1981-08-26 18:01:22.360 ,1,0,0.,4.8,2.,4.8,1.,4.8,0.,4.8
1981-08-26 18:01:27.160 ,1,0,0.,4.8,8.,4.8,0.,4.8,0.,4.8
1981-08-26 18:01:31.960 ,1,0,0.,4.8,5.,4.8,0.,4.8,0.,4.8
1981-08-26 18:01:36.760 ,2,0,0.,4.8,3.,4.8,0.,4.8,0.,4.8
1981-08-26 18:01:41.560 ,2,0,0.,4.8,7.,4.8,0.,4.8,0.,4.8
1981-08-26 18:01:46.360 ,2,0,0.,4.8,8.,4.8,0.,4.8,1.,4.8
1981-08-26 18:01:51.160 ,2,0,0.,4.8,8.,4.8,0.,4.8,0.,4.8
1981-08-26 18:01:55.960 ,2,0,0.,4.8,5.,4.8,0.,4.8,0.,4.8
1981-08-26 18:02:00.760 ,2,0,0.,4.8,10.,4.8,1.,4.8,1.,4.8
1981-08-26 18:02:05.560 ,2,0,0.,4.8,3.,4.8,0.,4.8,0.,4.8
1981-08-26 18:02:10.360 ,2,0,0.,4.8,10.,4.8,2.,4.8,1.,4.8
1981-08-26 18:02:15.160 ,2,0,0.,4.8,2.,4.8,0.,4.8,0.,4.8
1981-08-26 18:02:19.960 ,2,0,0.,4.8,4.,4.8,1.,4.8,0.,4.8
1981-08-26 18:02:24.760 ,3,0,0.,4.8,7.,4.8,0.,4.8,1.,4.8
1981-08-26 18:02:29.560 ,3,0,0.,4.8,4.,4.8,0.,4.8,0.,4.8
1981-08-26 18:02:34.360 ,3,0,0.,4.8,3.,4.8,0.,4.8,0.,4.8
1981-08-26 18:02:39.160 ,3,0,0.,4.8,4.,4.8,0.,4.8,0.,4.8
1981-08-26 18:02:43.960 ,3,0,0.,4.8,13.,4.8,1.,4.8,0.,4.8
1981-08-26 18:02:48.760 ,3,0,0.,4.8,5.,4.8,1.,4.8,0.,4.8
1981-08-26 18:02:53.560 ,3,0,0.,4.8,4.,4.8,1.,4.8,1.,4.8
1981-08-26 18:02:58.360 ,3,0,0.,4.8,7.,4.8,0.,4.8,0.,4.8
1981-08-26 18:03:03.160 ,3,0,0.,4.8,3.,4.8,0.,4.8,0.,4.8
1981-08-26 18:03:07.960 ,3,0,0.,4.8,7.,4.8,1.,4.8,0.,4.8
1981-08-26 18:03:12.760 ,4,0,0.,4.8,6.,4.8,0.,4.8,0.,4.8
1981-08-26 18:03:17.560 ,4,0,0.,4.8,12.,4.8,0.,4.8,0.,4.8
1981-08-26 18:03:22.360 ,4,0,0.,4.8,9.,4.8,2.,4.8,0.,4.8
1981-08-26 18:03:27.160 ,4,0,0.,4.8,6.,4.8,0.,4.8,0.,4.8
1981-08-26 18:03:31.960 ,4,0,0.,4.8,9.,4.8,0.,4.8,0.,4.8
1981-08-26 18:03:36.760 ,4,0,0.,4.8,4.,4.8,0.,4.8,0.,4.8
1981-08-26 18:03:41.560 ,4,0,0.,4.8,5.,4.8,0.,4.8,0.,4.8
1981-08-26 18:03:46.360 ,4,0,0.,4.8,6.,4.8,1.,4.8,0.,4.8
1981-08-26 18:03:51.160 ,4,0,0.,4.8,9.,4.8,0.,4.8,0.,4.8
1981-08-26 18:03:55.960 ,4,0,0.,4.8,6.,4.8,1.,4.8,0.,4.8
1981-08-26 18:04:00.760 ,5,0,0.,4.8,6.,4.8,1.,4.8,0.,4.8
1981-08-26 18:04:05.560 ,5,0,0.,4.8,5.,4.8,0.,4.8,0.,4.8
1981-08-26 18:04:10.360 ,5,0,0.,4.8,5.,4.8,0.,4.8,0.,4.8
1981-08-26 18:04:15.160 ,5,0,0.,4.8,3.,4.8,0.,4.8,0.,4.8
1981-08-26 18:04:19.960 ,5,0,0.,4.8,7.,4.8,2.,4.8,0.,4.8
1981-08-26 18:04:24.760 ,5,0,0.,4.8,6.,4.8,1.,4.8,0.,4.8
1981-08-26 18:04:29.560 ,5,0,0.,4.8,7.,4.8,0.,4.8,0.,4.8
1981-08-26 18:04:34.360 ,5,0,0.,4.8,4.,4.8,0.,4.8,1.,4.8
1981-08-26 18:04:39.160 ,5,0,0.,4.8,5.,4.8,0.,4.8,0.,4.8
1981-08-26 18:04:43.960 ,5,0,0.,4.8,10.,4.8,0.,4.8,0.,4.8
1981-08-26 18:04:48.760 ,6,0,0.,4.8,7.,4.8,0.,4.8,0.,4.8
1981-08-26 18:04:53.560 ,6,0,0.,4.8,5.,4.8,1.,4.8,0.,4.8
1981-08-26 18:04:58.360 ,6,0,0.,4.8,6.,4.8,0.,4.8,0.,4.8
1981-08-26 18:05:03.160 ,6,0,0.,4.8,2.,4.8,0.,4.8,0.,4.8
1981-08-26 18:05:07.960 ,6,0,0.,4.8,7.,4.8,0.,4.8,0.,4.8
1981-08-26 18:05:12.760 ,6,0,0.,4.8,7.,4.8,1.,4.8,0.,4.8
1981-08-26 18:05:17.560 ,6,0,0.,4.8,4.,4.8,0.,4.8,0.,4.8
1981-08-26 18:05:22.360 ,6,0,0.,4.8,6.,4.8,0.,4.8,0.,4.8
1981-08-26 18:05:27.160 ,6,0,0.,4.8,8.,4.8,0.,4.8,0.,4.8
1981-08-26 18:05:31.960 ,6,0,0.,4.8,7.,4.8,0.,4.8,0.,4.8
1981-08-26 18:05:36.760 ,7,0,0.,4.8,8.,4.8,0.,4.8,0.,4.8
1981-08-26 18:05:41.560 ,7,0,0.,4.8,7.,4.8,0.,4.8,0.,4.8
1981-08-26 18:05:46.360 ,7,0,0.,4.8,1.,4.8,0.,4.8,0.,4.8
1981-08-26 18:05:51.160 ,7,0,0.,4.8,1.,4.8,0.,4.8,0.,4.8
1981-08-26 18:05:55.960 ,7,0,0.,4.8,1.,4.8,0.,4.8,0.,4.8
1981-08-26 18:06:00.760 ,7,0,0.,4.8,0.,4.8,1.,4.8,0.,4.8
1981-08-26 18:06:05.560 ,7,0,0.,4.8,0.,4.8,0.,4.8,0.,4.8
1981-08-26 18:06:10.360 ,7,0,0.,4.8,2.,4.8,0.,4.8,0.,4.8
1981-08-26 18:06:15.160 ,7,0,0.,4.8,1.,4.8,0.,4.8,0.,4.8
1981-08-26 18:06:19.960 ,7,0,0.,4.8,0.,4.8,0.,4.8,0.,4.8
1981-08-26 18:06:24.760 ,7,0,0.,4.8,1.,4.8,0.,4.8,0.,4.8
1981-08-26 18:06:29.560 ,7,0,0.,4.8,0.,4.8,0.,4.8,0.,4.8
1981-08-26 18:06:34.360 ,7,0,0.,4.8,0.,4.8,0.,4.8,0.,4.8
1981-08-26 18:06:39.160 ,7,0,0.,4.8,0.,4.8,0.,4.8,0.,4.8
1981-08-26 18:06:43.960 ,7,0,0.,4.8,2.,4.8,0.,4.8,0.,4.8
1981-08-26 18:06:48.760 ,7,0,0.,4.8,1.,4.8,1.,4.8,0.,4.8
1981-08-26 18:06:53.560 ,7,0,0.,4.8,2.,4.8,0.,4.8,0.,4.8
1981-08-26 18:06:58.360 ,7,0,0.,4.8,1.,4.8,2.,4.8,0.,4.8
1981-08-26 18:07:03.160 ,7,0,0.,4.8,0.,4.8,0.,4.8,0.,4.8
1981-08-26 18:07:07.960 ,7,0,0.,4.8,1.,4.8,0.,4.8,0.,4.8
1981-08-26 18:07:12.760 ,6,0,0.,4.8,0.,4.8,0.,4.8,0.,4.8
1981-08-26 18:07:17.560 ,6,0,0.,4.8,0.,4.8,0.,4.8,0.,4.8
1981-08-26 18:07:22.360 ,6,0,0.,4.8,9.,4.8,0.,4.8,0.,4.8
1981-08-26 18:07:27.160 ,6,0,0.,4.8,2.,4.8,0.,4.8,0.,4.8
1981-08-26 18:07:31.960 ,6,0,0.,4.8,2.,4.8,0.,4.8,0.,4.8
1981-08-26 18:07:36.760 ,6,0,0.,4.8,5.,4.8,0.,4.8,0.,4.8
1981-08-26 18:07:41.560 ,6,0,0.,4.8,4.,4.8,0.,4.8,0.,4.8
1981-08-26 18:07:46.360 ,6,0,0.,4.8,4.,4.8,0.,4.8,0.,4.8
1981-08-26 18:07:51.160 ,6,0,0.,4.8,7.,4.8,0.,4.8,0.,4.8
1981-08-26 18:07:55.960 ,6,0,0.,4.8,3.,4.8,0.,4.8,0.,4.8
1981-08-26 18:08:00.760 ,5,0,0.,4.8,2.,4.8,1.,4.8,0.,4.8
1981-08-26 18:08:05.560 ,5,0,0.,4.8,3.,4.8,1.,4.8,0.,4.8
1981-08-26 18:08:10.360 ,5,0,0.,4.8,3.,4.8,0.,4.8,1.,4.8
1981-08-26 18:08:15.160 ,5,0,0.,4.8,5.,4.8,0.,4.8,0.,4.8
1981-08-26 18:08:19.960 ,5,0,0.,4.8,3.,4.8,0.,4.8,0.,4.8
1981-08-26 18:08:24.760 ,5,0,0.,4.8,1.,4.8,0.,4.8,0.,4.8
1981-08-26 18:08:29.560 ,5,0,0.,4.8,7.,4.8,0.,4.8,1.,4.8
1981-08-26 18:08:34.360 ,5,0,0.,4.8,3.,4.8,0.,4.8,0.,4.8
1981-08-26 18:08:39.160 ,5,0,0.,4.8,11.,4.8,0.,4.8,0.,4.8
1981-08-26 18:08:43.960 ,5,0,0.,4.8,7.,4.8,1.,4.8,0.,4.8
1981-08-26 18:08:48.760 ,4,0,0.,4.8,2.,4.8,0.,4.8,0.,4.8
1981-08-26 18:08:53.560 ,4,0,0.,4.8,7.,4.8,0.,4.8,0.,4.8
1981-08-26 18:08:58.360 ,4,0,0.,4.8,6.,4.8,1.,4.8,0.,4.8
1981-08-26 18:09:03.160 ,4,0,0.,4.8,15.,4.8,1.,4.8,0.,4.8
1981-08-26 18:09:07.960 ,4,0,0.,4.8,8.,4.8,0.,4.8,0.,4.8
1981-08-26 18:09:12.760 ,4,0,0.,4.8,8.,4.8,0.,4.8,1.,4.8
1981-08-26 18:09:17.560 ,4,0,0.,4.8,12.,4.8,0.,4.8,0.,4.8
1981-08-26 18:09:22.360 ,4,0,0.,4.8,7.,4.8,0.,4.8,0.,4.8
1981-08-26 18:09:27.160 ,4,0,0.,4.8,6.,4.8,0.,4.8,0.,4.8
1981-08-26 18:09:31.960 ,4,0,0.,4.8,3.,4.8,1.,4.8,1.,4.8
1981-08-26 18:09:36.760 ,3,0,0.,4.8,6.,4.8,0.,4.8,0.,4.8
1981-08-26 18:09:41.560 ,3,0,0.,4.8,9.,4.8,0.,4.8,0.,4.8
1981-08-26 18:09:46.360 ,3,0,0.,4.8,10.,4.8,1.,4.8,0.,4.8
1981-08-26 18:09:51.160 ,3,0,0.,4.8,5.,4.8,0.,4.8,0.,4.8
1981-08-26 18:09:55.960 ,3,0,0.,4.8,8.,4.8,0.,4.8,0.,4.8
1981-08-26 18:10:00.760 ,3,0,0.,4.8,2.,4.8,0.,4.8,0.,4.8
1981-08-26 18:10:05.560 ,3,0,0.,4.8,5.,4.8,0.,4.8,0.,4.8
1981-08-26 18:10:10.360 ,3,0,0.,4.8,5.,4.8,0.,4.8,0.,4.8
1981-08-26 18:10:15.160 ,3,0,0.,4.8,7.,4.8,1.,4.8,0.,4.8
1981-08-26 18:10:19.960 ,3,0,0.,4.8,9.,4.8,0.,4.8,0.,4.8
1981-08-26 18:10:24.760 ,2,0,0.,4.8,6.,4.8,0.,4.8,0.,4.8
1981-08-26 18:10:29.560 ,2,0,0.,4.8,5.,4.8,0.,4.8,0.,4.8
1981-08-26 18:10:34.360 ,2,0,0.,4.8,2.,4.8,1.,4.8,0.,4.8
1981-08-26 18:10:39.160 ,2,0,0.,4.8,4.,4.8,2.,4.8,1.,4.8
1981-08-26 18:10:43.960 ,2,0,0.,4.8,7.,4.8,0.,4.8,1.,4.8
1981-08-26 18:10:48.760 ,0,0,0.,4.8,7.,4.8,0.,4.8,0.,4.8
1981-08-26 18:10:53.560 ,0,0,0.,4.8,3.,4.8,0.,4.8,1.,4.8
1981-08-26 18:10:58.360 ,0,0,0.,4.8,7.,4.8,0.,4.8,0.,4.8
1981-08-26 18:11:03.160 ,0,0,0.,4.8,5.,4.8,0.,4.8,0.,4.8
1981-08-26 18:11:07.960 ,0,0,0.,4.8,10.,4.8,0.,4.8,0.,4.8
1981-08-26 18:14:33.760 ,0,0,,0,,0,,0,,0
1981-08-26 18:14:38.560 ,0,0,,0,,0,,0,,0
1981-08-26 18:14:43.360 ,0,0,0.,4.8,9.,4.8,0.,4.8,1.,4.8
1981-08-26 18:14:48.160 ,0,0,0.,4.8,9.,4.8,0.,4.8,0.,4.8
1981-08-26 18:14:52.960 ,0,0,0.,4.8,6.,4.8,0.,4.8,0.,4.8
1981-08-26 18:14:48.760 ,0,0,0.,4.8,6.,4.8,0.,4.8,0.,4.8
1981-08-26 18:14:53.560 ,0,0,,0,,0,,0,,0
1981-08-26 18:14:58.360 ,0,0,0.,4.8,10.,4.8,1.,4.8,0.,4.8
1981-08-26 18:15:03.160 ,0,0,0.,4.8,5.,4.8,2.,4.8,0.,4.8
1981-08-26 18:15:07.960 ,0,0,0.,4.8,5.,4.8,0.,4.8,1.,4.8
1981-08-26 18:15:12.760 ,3,0,0.,4.8,1.,4.8,0.,4.8,0.,4.8
1981-08-26 18:15:17.560 ,3,0,0.,4.8,5.,4.8,0.,4.8,0.,4.8
1981-08-26 18:15:22.360 ,3,0,0.,4.8,3.,4.8,0.,4.8,0.,4.8
1981-08-26 18:15:27.160 ,3,0,0.,4.8,5.,4.8,0.,4.8,0.,4.8
1981-08-26 18:15:31.960 ,3,0,0.,4.8,5.,4.8,1.,4.8,1.,4.8
1981-08-26 18:15:36.760 ,3,0,0.,4.8,6.,4.8,0.,4.8,0.,4.8
1981-08-26 18:15:41.560 ,3,0,0.,4.8,6.,4.8,1.,4.8,0.,4.8
1981-08-26 18:15:46.360 ,3,0,0.,4.8,4.,4.8,0.,4.8,0.,4.8
1981-08-26 18:15:51.160 ,3,0,0.,4.8,9.,4.8,0.,4.8,0.,4.8
1981-08-26 18:15:55.960 ,3,0,0.,4.8,11.,4.8,0.,4.8,0.,4.8
1981-08-26 18:16:00.760 ,0,0,0.,4.8,7.,4.8,1.,4.8,1.,4.8
1981-08-26 18:16:05.560 ,0,0,0.,4.8,8.,4.8,0.,4.8,0.,4.8
1981-08-26 18:16:10.360 ,0,0,0.,4.8,5.,4.8,0.,4.8,0.,4.8
1981-08-26 18:16:15.160 ,0,0,0.,4.8,11.,4.8,0.,4.8,0.,4.8
1981-08-26 18:16:19.960 ,0,0,0.,4.8,5.,4.8,1.,4.8,0.,4.8
1981-08-26 18:16:24.760 ,0,0,0.,4.8,12.,4.8,0.,4.8,1.,4.8
1981-08-26 18:16:29.560 ,0,0,0.,4.8,8.,4.8,0.,4.8,0.,4.8
1981-08-26 18:16:34.360 ,0,0,0.,4.8,11.,4.8,0.,4.8,0.,4.8
1981-08-26 18:16:39.160 ,0,0,0.,4.8,9.,4.8,0.,4.8,0.,4.8
1981-08-26 18:16:43.960 ,0,0,0.,4.8,3.,4.8,0.,4.8,1.,4.8
1981-08-26 18:16:48.760 ,5,0,0.,4.8,10.,4.8,1.,4.8,0.,4.8
1981-08-26 18:16:53.560 ,5,0,0.,4.8,4.,4.8,2.,4.8,0.,4.8
1981-08-26 18:16:58.360 ,5,0,0.,4.8,8.,4.8,1.,4.8,0.,4.8
1981-08-26 18:17:03.160 ,5,0,0.,4.8,6.,4.8,0.,4.8,1.,4.8
1981-08-26 18:17:07.960 ,5,0,0.,4.8,4.,4.8,0.,4.8,1.,4.8
1981-08-26 18:17:12.760 ,5,0,0.,4.8,9.,4.8,0.,4.8,0.,4.8
1981-08-26 18:17:17.560 ,5,0,0.,4.8,9.,4.8,0.,4.8,0.,4.8
1981-08-26 18:17:22.360 ,5,0,0.,4.8,9.,4.8,0.,4.8,0.,4.8
1981-08-26 18:17:27.160 ,5,0,0.,4.8,7.,4.8,0.,4.8,1.,4.8
1981-08-26 18:17:31.960 ,5,0,0.,4.8,9.,4.8,2.,4.8,0.,4.8
1981-08-26 18:17:36.760 ,6,0,0.,4.8,9.,4.8,0.,4.8,0.,4.8
1981-08-26 18:17:41.560 ,6,0,0.,4.8,13.,4.8,1.,4.8,0.,4.8
1981-08-26 18:17:46.360 ,6,0,0.,4.8,6.,4.8,1.,4.8,2.,4.8
1981-08-26 18:17:51.160 ,6,0,0.,4.8,10.,4.8,2.,4.8,0.,4.8
1981-08-26 18:17:55.960 ,6,0,0.,4.8,6.,4.8,0.,4.8,0.,4.8
1981-08-26 18:18:00.760 ,6,0,0.,4.8,12.,4.8,0.,4.8,0.,4.8
1981-08-26 18:18:05.560 ,6,0,0.,4.8,6.,4.8,0.,4.8,0.,4.8
1981-08-26 18:18:10.360 ,6,0,0.,4.8,10.,4.8,0.,4.8,0.,4.8
1981-08-26 18:18:15.160 ,6,0,0.,4.8,4.,4.8,1.,4.8,1.,4.8
1981-08-26 18:18:19.960 ,6,0,0.,4.8,8.,4.8,0.,4.8,0.,4.8
1981-08-26 18:19:12.760 ,0,0,0.,4.8,0.,4.8,0.,4.8,0.,4.8
1981-08-26 18:19:17.560 ,0,0,0.,4.8,0.,4.8,0.,4.8,0.,4.8
1981-08-26 18:19:22.360 ,0,0,0.,4.8,0.,4.8,0.,4.8,0.,4.8
1981-08-26 18:19:27.160 ,0,0,0.,4.8,0.,4.8,0.,4.8,0.,4.8
1981-08-26 18:19:31.960 ,0,0,0.,4.8,0.,4.8,0.,4.8,0.,4.8
1981-08-26 18:19:36.760 ,0,0,0.,4.8,0.,4.8,0.,4.8,0.,4.8
1981-08-26 18:19:41.560 ,0,0,0.,4.8,0.,4.8,0.,4.8,0.,4.8
1981-08-26 18:19:46.360 ,0,0,0.,4.8,1.,4.8,0.,4.8,0.,4.8
1981-08-26 18:19:51.160 ,0,0,0.,4.8,0.,4.8,0.,4.8,0.,4.8
1981-08-26 18:19:55.960 ,0,0,0.,4.8,0.,4.8,0.,4.8,0.,4.8
1981-08-26 18:20:00.760 ,6,0,0.,4.8,1.,4.8,0.,4.8,0.,4.8
1981-08-26 18:20:05.560 ,6,0,0.,4.8,0.,4.8,0.,4.8,0.,4.8
1981-08-26 18:20:10.360 ,6,0,0.,4.8,13.,4.8,0.,4.8,0.,4.8
1981-08-26 18:20:15.160 ,6,0,0.,4.8,11.,4.8,1.,4.8,1.,4.8
1981-08-26 18:20:19.960 ,6,0,0.,4.8,5.,4.8,0.,4.8,0.,4.8
1981-08-26 18:20:24.760 ,6,0,0.,4.8,6.,4.8,0.,4.8,0.,4.8
1981-08-26 18:20:29.560 ,6,0,0.,4.8,5.,4.8,1.,4.8,1.,4.8
1981-08-26 18:20:34.360 ,6,0,0.,4.8,6.,4.8,0.,4.8,0.,4.8
1981-08-26 18:20:39.160 ,6,0,0.,4.8,7.,4.8,0.,4.8,0.,4.8
1981-08-26 18:20:43.960 ,6,0,0.,4.8,12.,4.8,1.,4.8,0.,4.8
1981-08-26 18:20:48.760 ,5,0,0.,4.8,9.,4.8,1.,4.8,0.,4.8
1981-08-26 18:20:53.560 ,5,0,0.,4.8,8.,4.8,0.,4.8,0.,4.8
1981-08-26 18:20:58.360 ,5,0,0.,4.8,3.,4.8,0.,4.8,0.,4.8
1981-08-26 18:21:03.160 ,5,0,0.,4.8,10.,4.8,1.,4.8,0.,4.8
1981-08-26 18:21:07.960 ,5,0,0.,4.8,14.,4.8,0.,4.8,0.,4.8
1981-08-26 18:21:12.760 ,5,0,0.,4.8,10.,4.8,1.,4.8,0.,4.8
1981-08-26 18:21:17.560 ,5,0,0.,4.8,13.,4.8,0.,4.8,0.,4.8
1981-08-26 18:21:22.360 ,5,0,0.,4.8,5.,4.8,0.,4.8,0.,4.8
1981-08-26 18:21:27.160 ,5,0,0.,4.8,11.,4.8,0.,4.8,0.,4.8
1981-08-26 18:21:31.960 ,5,0,0.,4.8,13.,4.8,0.,4.8,1.,4.8
1981-08-26 18:21:36.760 ,4,0,0.,4.8,9.,4.8,0.,4.8,0.,4.8
1981-08-26 18:21:41.560 ,4,0,0.,4.8,11.,4.8,1.,4.8,0.,4.8
1981-08-26 18:21:46.360 ,4,0,0.,4.8,7.,4.8,1.,4.8,0.,4.8
1981-08-26 18:21:51.160 ,4,0,0.,4.8,14.,4.8,0.,4.8,1.,4.8
1981-08-26 18:21:55.960 ,4,0,0.,4.8,8.,4.8,1.,4.8,0.,4.8
1981-08-26 18:22:00.760 ,4,0,0.,4.8,23.,4.8,0.,4.8,1.,4.8
1981-08-26 18:22:05.560 ,4,0,0.,4.8,8.,4.8,0.,4.8,0.,4.8
1981-08-26 18:22:10.360 ,4,0,0.,4.8,12.,4.8,1.,4.8,1.,4.8
1981-08-26 18:22:15.160 ,4,0,0.,4.8,10.,4.8,1.,4.8,1.,4.8
1981-08-26 18:22:19.960 ,4,0,0.,4.8,9.,4.8,0.,4.8,0.,4.8
1981-08-26 18:22:24.760 ,3,0,0.,4.8,13.,4.8,0.,4.8,0.,4.8
1981-08-26 18:22:29.560 ,3,0,0.,4.8,7.,4.8,0.,4.8,0.,4.8
1981-08-26 18:22:34.360 ,3,0,0.,4.8,2.,4.8,0.,4.8,0.,4.8
1981-08-26 18:22:39.160 ,3,0,0.,4.8,10.,4.8,0.,4.8,0.,4.8
1981-08-26 18:22:43.960 ,3,0,0.,4.8,8.,4.8,0.,4.8,0.,4.8
1981-08-26 18:22:48.760 ,3,0,0.,4.8,8.,4.8,0.,4.8,0.,4.8
1981-08-26 18:22:53.560 ,3,0,0.,4.8,5.,4.8,0.,4.8,0.,4.8
1981-08-26 18:22:58.360 ,3,0,0.,4.8,9.,4.8,0.,4.8,0.,4.8
1981-08-26 18:23:03.160 ,3,0,0.,4.8,7.,4.8,0.,4.8,1.,4.8
1981-08-26 18:23:07.960 ,3,0,0.,4.8,13.,4.8,0.,4.8,0.,4.8
1981-08-26 18:23:12.760 ,2,0,0.,4.8,7.,4.8,0.,4.8,0.,4.8
1981-08-26 18:23:17.560 ,2,0,0.,4.8,9.,4.8,0.,4.8,0.,4.8
1981-08-26 18:23:22.360 ,2,0,0.,4.8,4.,4.8,1.,4.8,0.,4.8
1981-08-26 18:23:27.160 ,2,0,0.,4.8,8.,4.8,0.,4.8,0.,4.8
1981-08-26 18:23:31.960 ,2,0,0.,4.8,11.,4.8,0.,4.8,0.,4.8
1981-08-26 18:23:36.760 ,2,0,0.,4.8,2.,4.8,0.,4.8,1.,4.8
1981-08-26 18:23:41.560 ,2,0,0.,4.8,8.,4.8,0.,4.8,0.,4.8
1981-08-26 18:23:46.360 ,2,0,0.,4.8,13.,4.8,0.,4.8,0.,4.8
1981-08-26 18:23:51.160 ,2,0,0.,4.8,7.,4.8,1.,4.8,0.,4.8
1981-08-26 18:23:55.960 ,2,0,0.,4.8,9.,4.8,1.,4.8,0.,4.8
1981-08-26 18:24:00.760 ,1,0,0.,4.8,11.,4.8,1.,4.8,0.,4.8
1981-08-26 18:24:05.560 ,1,0,0.,4.8,10.,4.8,0.,4.8,1.,4.8
1981-08-26 18:24:10.360 ,1,0,0.,4.8,8.,4.8,1.,4.8,0.,4.8
1981-08-26 18:24:15.160 ,1,0,0.,4.8,9.,4.8,1.,4.8,0.,4.8
1981-08-26 18:24:19.960 ,1,0,0.,4.8,9.,4.8,0.,4.8,0.,4.8
1981-08-26 18:24:24.760 ,1,0,0.,4.8,8.,4.8,0.,4.8,0.,4.8
1981-08-26 18:24:29.560 ,1,0,0.,4.8,8.,4.8,1.,4.8,0.,4.8
1981-08-26 18:24:34.360 ,1,0,0.,4.8,5.,4.8,2.,4.8,1.,4.8
1981-08-26 18:24:39.160 ,1,0,0.,4.8,6.,4.8,0.,4.8,0.,4.8
1981-08-26 18:24:43.960 ,1,0,0.,4.8,6.,4.8,0.,4.8,0.,4.8
1981-08-26 18:24:48.760 ,0,0,0.,4.8,8.,4.8,0.,4.8,0.,4.8
1981-08-26 18:24:53.560 ,0,0,0.,4.8,7.,4.8,0.,4.8,0.,4.8
1981-08-26 18:24:58.360 ,0,0,0.,4.8,10.,4.8,0.,4.8,0.,4.8
1981-08-26 18:25:03.160 ,0,0,0.,4.8,4.,4.8,1.,4.8,0.,4.8
1981-08-26 18:25:07.960 ,0,0,0.,4.8,7.,4.8,0.,4.8,0.,4.8
1981-08-26 18:25:12.760 ,0,0,0.,4.8,3.,4.8,0.,4.8,0.,4.8
1981-08-26 18:25:17.560 ,0,0,0.,4.8,6.,4.8,0.,4.8,0.,4.8
1981-08-26 18:25:22.360 ,0,0,0.,4.8,6.,4.8,1.,4.8,0.,4.8
1981-08-26 18:25:27.160 ,0,0,0.,4.8,6.,4.8,0.,4.8,0.,4.8
1981-08-26 18:25:31.960 ,0,0,0.,4.8,5.,4.8,0.,4.8,0.,4.8
1981-08-26 18:25:36.760 ,0,0,0.,4.8,6.,4.8,1.,4.8,0.,4.8
1981-08-26 18:25:41.560 ,0,0,0.,4.8,7.,4.8,0.,4.8,0.,4.8
1981-08-26 18:25:46.360 ,0,0,0.,4.8,5.,4.8,1.,4.8,1.,4.8
1981-08-26 18:25:51.160 ,0,0,0.,4.8,4.,4.8,0.,4.8,0.,4.8
1981-08-26 18:25:55.960 ,0,0,0.,4.8,6.,4.8,0.,4.8,0.,4.8
1981-08-26 18:26:00.760 ,0,0,0.,4.8,5.,4.8,1.,4.8,0.,4.8
1981-08-26 18:26:05.560 ,0,0,0.,4.8,4.,4.8,1.,4.8,0.,4.8
1981-08-26 18:26:10.360 ,0,0,0.,4.8,9.,4.8,1.,4.8,0.,4.8
1981-08-26 18:26:15.160 ,0,0,0.,4.8,5.,4.8,0.,4.8,0.,4.8
1981-08-26 18:26:19.960 ,0,0,0.,4.8,5.,4.8,1.,4.8,1.,4.8
1981-08-26 18:26:24.760 ,1,0,0.,4.8,7.,4.8,0.,4.8,0.,4.8
1981-08-26 18:26:29.560 ,1,0,0.,4.8,17.,4.8,1.,4.8,0.,4.8
1981-08-26 18:26:34.360 ,1,0,0.,4.8,6.,4.8,0.,4.8,0.,4.8
1981-08-26 18:26:39.160 ,1,0,,0,,0,,0,,0
1981-08-26 18:26:43.960 ,1,0,0.,4.8,7.,4.8,0.,4.8,0.,4.8
1981-08-26 18:26:48.760 ,1,0,0.,4.8,4.,4.8,0.,4.8,0.,4.8
1981-08-26 18:26:53.560 ,1,0,0.,4.8,6.,4.8,1.,4.8,0.,4.8
1981-08-26 18:26:58.360 ,1,0,0.,4.8,6.,4.8,0.,4.8,0.,4.8
1981-08-26 18:27:03.160 ,1,0,0.,4.8,10.,4.8,0.,4.8,0.,4.8
1981-08-26 18:27:07.960 ,1,0,0.,4.8,7.,4.8,0.,4.8,0.,4.8
1981-08-26 18:27:12.760 ,2,0,0.,4.8,4.,4.8,1.,4.8,0.,4.8
1981-08-26 18:27:17.560 ,2,0,0.,4.8,8.,4.8,0.,4.8,1.,4.8
1981-08-26 18:27:22.360 ,2,0,0.,4.8,7.,4.8,2.,4.8,0.,4.8
1981-08-26 18:27:27.160 ,2,0,0.,4.8,6.,4.8,0.,4.8,0.,4.8
1981-08-26 18:27:31.960 ,2,0,0.,4.8,4.,4.8,1.,4.8,0.,4.8
1981-08-26 18:27:36.760 ,2,0,0.,4.8,6.,4.8,0.,4.8,0.,4.8
1981-08-26 18:27:41.560 ,2,0,0.,4.8,8.,4.8,0.,4.8,0.,4.8
1981-08-26 18:27:46.360 ,2,0,0.,4.8,12.,4.8,0.,4.8,0.,4.8
1981-08-26 18:27:51.160 ,2,0,0.,4.8,6.,4.8,0.,4.8,0.,4.8
1981-08-26 18:27:55.960 ,2,0,0.,4.8,11.,4.8,0.,4.8,0.,4.8
1981-08-26 18:28:00.760 ,3,0,0.,4.8,11.,4.8,0.,4.8,0.,4.8
1981-08-26 18:28:05.560 ,3,0,0.,4.8,5.,4.8,0.,4.8,0.,4.8
1981-08-26 18:28:10.360 ,3,0,0.,4.8,6.,4.8,1.,4.8,0.,4.8
1981-08-26 18:28:15.160 ,3,0,0.,4.8,8.,4.8,0.,4.8,0.,4.8
1981-08-26 18:28:19.960 ,3,0,0.,4.8,8.,4.8,0.,4.8,0.,4.8
1981-08-26 18:28:24.760 ,3,0,0.,4.8,9.,4.8,0.,4.8,0.,4.8
1981-08-26 18:28:29.560 ,3,0,0.,4.8,4.,4.8,1.,4.8,0.,4.8
1981-08-26 18:28:34.360 ,3,0,0.,4.8,5.,4.8,0.,4.8,1.,4.8
1981-08-26 18:28:39.160 ,3,0,0.,4.8,7.,4.8,1.,4.8,0.,4.8
1981-08-26 18:28:43.960 ,3,0,0.,4.8,13.,4.8,0.,4.8,1.,4.8
1981-08-26 18:28:48.760 ,4,0,0.,4.8,6.,4.8,0.,4.8,0.,4.8
1981-08-26 18:28:53.560 ,4,0,0.,4.8,5.,4.8,0.,4.8,0.,4.8
1981-08-26 18:28:58.360 ,4,0,0.,4.8,7.,4.8,1.,4.8,0.,4.8
1981-08-26 18:29:03.160 ,4,0,0.,4.8,14.,4.8,0.,4.8,0.,4.8
1981-08-26 18:29:07.960 ,4,0,0.,4.8,12.,4.8,0.,4.8,1.,4.8
1981-08-26 18:29:12.760 ,4,0,0.,4.8,8.,4.8,2.,4.8,0.,4.8
1981-08-26 18:29:17.560 ,4,0,0.,4.8,3.,4.8,0.,4.8,0.,4.8
1981-08-26 18:29:22.360 ,4,0,0.,4.8,8.,4.8,1.,4.8,0.,4.8
1981-08-26 18:29:27.160 ,4,0,0.,4.8,6.,4.8,0.,4.8,0.,4.8
1981-08-26 18:29:31.960 ,4,0,0.,4.8,6.,4.8,1.,4.8,0.,4.8
1981-08-26 18:29:36.760 ,5,0,0.,4.8,5.,4.8,0.,4.8,0.,4.8
1981-08-26 18:29:41.560 ,5,0,0.,4.8,7.,4.8,0.,4.8,0.,4.8
1981-08-26 18:29:46.360 ,5,0,0.,4.8,4.,4.8,0.,4.8,0.,4.8
1981-08-26 18:29:51.160 ,5,0,0.,4.8,8.,4.8,0.,4.8,0.,4.8
1981-08-26 18:29:55.960 ,5,0,0.,4.8,3.,4.8,0.,4.8,1.,4.8
1981-08-26 18:30:00.760 ,5,0,0.,4.8,7.,4.8,0.,4.8,0.,4.8
1981-08-26 18:30:05.560 ,5,0,0.,4.8,8.,4.8,0.,4.8,0.,4.8
1981-08-26 18:30:10.360 ,5,0,0.,4.8,7.,4.8,0.,4.8,1.,4.8
1981-08-26 18:30:15.160 ,5,0,0.,4.8,9.,4.8,0.,4.8,0.,4.8
1981-08-26 18:30:19.960 ,5,0,0.,4.8,3.,4.8,0.,4.8,0.,4.8
1981-08-26 18:30:24.760 ,6,0,0.,4.8,8.,4.8,0.,4.8,0.,4.8
1981-08-26 18:30:29.560 ,6,0,0.,4.8,4.,4.8,0.,4.8,1.,4.8
1981-08-26 18:30:34.360 ,6,0,0.,4.8,7.,4.8,0.,4.8,0.,4.8
1981-08-26 18:30:39.160 ,6,0,0.,4.8,4.,4.8,0.,4.8,0.,4.8
1981-08-26 18:30:43.960 ,6,0,0.,4.8,5.,4.8,0.,4.8,0.,4.8
1981-08-26 18:30:48.760 ,6,0,0.,4.8,3.,4.8,0.,4.8,0.,4.8
1981-08-26 18:30:53.560 ,6,0,0.,4.8,7.,4.8,0.,4.8,0.,4.8
1981-08-26 18:30:58.360 ,6,0,0.,4.8,7.,4.8,0.,4.8,0.,4.8
1981-08-26 18:31:03.160 ,6,0,0.,4.8,6.,4.8,0.,4.8,0.,4.8
1981-08-26 18:31:07.960 ,6,0,0.,4.8,8.,4.8,1.,4.8,0.,4.8
1981-08-26 18:31:12.760 ,7,0,0.,4.8,10.,4.8,1.,4.8,0.,4.8
1981-08-26 18:31:17.560 ,7,0,0.,4.8,4.,4.8,0.,4.8,0.,4.8
1981-08-26 18:31:22.360 ,7,0,0.,4.8,0.,4.8,0.,4.8,1.,4.8
1981-08-26 18:31:27.160 ,7,0,0.,4.8,0.,4.8,0.,4.8,0.,4.8
1981-08-26 18:31:31.960 ,7,0,0.,4.8,0.,4.8,0.,4.8,0.,4.8
1981-08-26 18:31:36.760 ,7,0,0.,4.8,1.,4.8,0.,4.8,0.,4.8
1981-08-26 18:31:41.560 ,7,0,0.,4.8,1.,4.8,0.,4.8,0.,4.8
1981-08-26 18:31:46.360 ,7,0,0.,4.8,1.,4.8,1.,4.8,0.,4.8
1981-08-26 18:31:51.160 ,7,0,0.,4.8,0.,4.8,0.,4.8,0.,4.8
1981-08-26 18:31:55.960 ,7,0,0.,4.8,0.,4.8,0.,4.8,0.,4.8
1981-08-26 18:32:00.760 ,7,0,0.,4.8,0.,4.8,0.,4.8,0.,4.8
1981-08-26 18:32:05.560 ,7,0,0.,4.8,0.,4.8,0.,4.8,0.,4.8
1981-08-26 18:32:10.360 ,7,0,0.,4.8,0.,4.8,0.,4.8,0.,4.8
1981-08-26 18:32:15.160 ,7,0,0.,4.8,0.,4.8,0.,4.8,0.,4.8
1981-08-26 18:32:19.960 ,7,0,0.,4.8,1.,4.8,0.,4.8,0.,4.8
1981-08-26 18:32:24.760 ,7,0,0.,4.8,1.,4.8,1.,4.8,0.,4.8
1981-08-26 18:32:29.560 ,7,0,0.,4.8,0.,4.8,0.,4.8,0.,4.8
1981-08-26 18:32:34.360 ,7,0,0.,4.8,0.,4.8,0.,4.8,0.,4.8
1981-08-26 18:32:39.160 ,7,0,0.,4.8,1.,4.8,0.,4.8,0.,4.8
1981-08-26 18:32:43.960 ,7,0,0.,4.8,0.,4.8,0.,4.8,0.,4.8
1981-08-26 18:32:48.760 ,6,0,0.,4.8,1.,4.8,0.,4.8,1.,4.8
1981-08-26 18:32:53.560 ,6,0,0.,4.8,0.,4.8,0.,4.8,0.,4.8
1981-08-26 18:32:58.360 ,6,0,0.,4.8,10.,4.8,0.,4.8,0.,4.8
1981-08-26 18:33:03.160 ,6,0,0.,4.8,4.,4.8,1.,4.8,0.,4.8
1981-08-26 18:33:07.960 ,6,0,0.,4.8,4.,4.8,0.,4.8,0.,4.8
1981-08-26 18:33:12.760 ,6,0,0.,4.8,7.,4.8,0.,4.8,0.,4.8
1981-08-26 18:33:17.560 ,6,0,0.,4.8,10.,4.8,0.,4.8,0.,4.8
1981-08-26 18:33:22.360 ,6,0,0.,4.8,6.,4.8,0.,4.8,0.,4.8
1981-08-26 18:33:27.160 ,6,0,0.,4.8,8.,4.8,0.,4.8,1.,4.8
1981-08-26 18:33:31.960 ,6,0,0.,4.8,5.,4.8,0.,4.8,0.,4.8
1981-08-26 18:33:36.760 ,5,0,0.,4.8,7.,4.8,0.,4.8,0.,4.8
1981-08-26 18:33:41.560 ,5,0,0.,4.8,8.,4.8,1.,4.8,0.,4.8
1981-08-26 18:33:46.360 ,5,0,0.,4.8,2.,4.8,0.,4.8,0.,4.8
1981-08-26 18:33:51.160 ,5,0,0.,4.8,9.,4.8,0.,4.8,0.,4.8
1981-08-26 18:33:55.960 ,5,0,0.,4.8,9.,4.8,0.,4.8,1.,4.8
1981-08-26 18:34:00.760 ,5,0,0.,4.8,4.,4.8,1.,4.8,0.,4.8
1981-08-26 18:34:05.560 ,5,0,0.,4.8,1.,4.8,0.,4.8,0.,4.8
1981-08-26 18:34:10.360 ,5,0,0.,4.8,5.,4.8,1.,4.8,0.,4.8
1981-08-26 18:34:15.160 ,5,0,0.,4.8,6.,4.8,0.,4.8,0.,4.8
1981-08-26 18:34:19.960 ,5,0,0.,4.8,5.,4.8,1.,4.8,0.,4.8
1981-08-26 18:34:24.760 ,4,0,0.,4.8,0.,4.8,1.,4.8,0.,4.8
1981-08-26 18:34:29.560 ,4,0,0.,4.8,5.,4.8,1.,4.8,0.,4.8
1981-08-26 18:34:34.360 ,4,0,0.,4.8,2.,4.8,0.,4.8,0.,4.8
1981-08-26 18:34:39.160 ,4,0,0.,4.8,9.,4.8,0.,4.8,0.,4.8
1981-08-26 18:34:43.960 ,4,0,0.,4.8,9.,4.8,0.,4.8,0.,4.8
1981-08-26 18:34:48.760 ,4,0,0.,4.8,8.,4.8,1.,4.8,1.,4.8
1981-08-26 18:34:53.560 ,4,0,0.,4.8,7.,4.8,0.,4.8,0.,4.8
1981-08-26 18:34:58.360 ,4,0,0.,4.8,6.,4.8,1.,4.8,0.,4.8
1981-08-26 18:35:03.160 ,4,0,0.,4.8,7.,4.8,0.,4.8,0.,4.8
1981-08-26 18:35:07.960 ,4,0,0.,4.8,7.,4.8,0.,4.8,0.,4.8
1981-08-26 18:35:12.760 ,3,0,0.,4.8,5.,4.8,0.,4.8,0.,4.8
1981-08-26 18:35:17.560 ,3,0,0.,4.8,4.,4.8,0.,4.8,0.,4.8
1981-08-26 18:35:22.360 ,3,0,0.,4.8,9.,4.8,0.,4.8,0.,4.8
1981-08-26 18:35:27.160 ,3,0,0.,4.8,6.,4.8,0.,4.8,0.,4.8
1981-08-26 18:35:31.960 ,3,0,0.,4.8,6.,4.8,0.,4.8,0.,4.8
1981-08-26 18:35:36.760 ,3,0,0.,4.8,11.,4.8,0.,4.8,1.,4.8
1981-08-26 18:35:41.560 ,3,0,0.,4.8,5.,4.8,0.,4.8,0.,4.8
1981-08-26 18:35:46.360 ,3,0,0.,4.8,10.,4.8,0.,4.8,1.,4.8
1981-08-26 18:35:51.160 ,3,0,0.,4.8,5.,4.8,0.,4.8,0.,4.8
1981-08-26 18:35:55.960 ,3,0,0.,4.8,11.,4.8,0.,4.8,0.,4.8
1981-08-26 18:36:00.760 ,2,0,0.,4.8,5.,4.8,0.,4.8,0.,4.8
1981-08-26 18:36:05.560 ,2,0,0.,4.8,4.,4.8,0.,4.8,2.,4.8
1981-08-26 18:36:10.360 ,2,0,0.,4.8,2.,4.8,0.,4.8,0.,4.8
1981-08-26 18:36:15.160 ,2,0,0.,4.8,4.,4.8,0.,4.8,0.,4.8
1981-08-26 18:36:19.960 ,2,0,0.,4.8,6.,4.8,0.,4.8,0.,4.8
1981-08-26 18:36:24.760 ,2,0,0.,4.8,4.,4.8,0.,4.8,0.,4.8
1981-08-26 18:36:29.560 ,2,0,0.,4.8,7.,4.8,0.,4.8,0.,4.8
1981-08-26 18:36:34.360 ,2,0,0.,4.8,4.,4.8,1.,4.8,0.,4.8
1981-08-26 18:36:39.160 ,2,0,0.,4.8,4.,4.8,0.,4.8,0.,4.8
1981-08-26 18:36:43.960 ,2,0,0.,4.8,6.,4.8,0.,4.8,0.,4.8
1981-08-26 18:36:48.760 ,1,0,0.,4.8,7.,4.8,0.,4.8,0.,4.8
1981-08-26 18:36:53.560 ,1,0,0.,4.8,6.,4.8,0.,4.8,0.,4.8
1981-08-26 18:36:58.360 ,1,0,0.,4.8,6.,4.8,0.,4.8,1.,4.8
1981-08-26 18:37:03.160 ,1,0,0.,4.8,7.,4.8,0.,4.8,0.,4.8
1981-08-26 18:37:07.960 ,1,0,0.,4.8,4.,4.8,0.,4.8,1.,4.8
1981-08-26 18:37:12.760 ,1,0,0.,4.8,3.,4.8,0.,4.8,0.,4.8
1981-08-26 18:37:17.560 ,1,0,0.,4.8,1.,4.8,0.,4.8,0.,4.8